| time (UTC) | temp F | wind direction | speed MPH | gust MPH | rain 1hr in | rain 24hr in | rain mn in | humidity % | barometer mb |
| 20260509101106 | 48 | 194 | 7.0 | 8.0 | 0.00 | 0.00 | 0.00 | 99 | 1009.7 |
| 20260509100603 | 48 | 195 | 5.0 | 6.0 | 0.00 | 0.00 | 0.00 | 99 | 1009.6 |
| 20260509100101 | 48 | 195 | 5.0 | 6.0 | 0.00 | 0.00 | 0.00 | 99 | 1009.9 |
| 20260509095557 | 48 | 210 | 5.0 | 6.0 | 0.00 | 0.00 | 0.00 | 99 | 1009.8 |
| 20260509095055 | 49 | 201 | 7.0 | 9.0 | 0.00 | 0.00 | 0.00 | 99 | 1009.9 |
| 20260509094550 | 49 | 210 | 5.0 | 6.0 | 0.00 | 0.00 | 0.00 | 99 | 1010.1 |
| 20260509094048 | 48 | 205 | 6.0 | 7.0 | 0.00 | 0.00 | 0.00 | 99 | 1010.0 |
| 20260509093546 | 48 | 203 | 6.0 | 8.0 | 0.00 | 0.00 | 0.00 | 99 | 1010.0 |
| 20260509093043 | 48 | 206 | 4.0 | 5.0 | 0.00 | 0.00 | 0.00 | 99 | 1009.8 |
| 20260509092541 | 48 | 209 | 6.0 | 7.0 | 0.00 | 0.00 | 0.00 | 99 | 1010.0 |
| 20260509092040 | 49 | 209 | 5.0 | 7.0 | 0.00 | 0.00 | 0.00 | 99 | 1010.0 |
| 20260509091537 | 49 | 200 | 7.0 | 7.0 | 0.00 | 0.00 | 0.00 | 99 | 1010.1 |
| 20260509091033 | 48 | 206 | 5.0 | 6.0 | 0.00 | 0.00 | 0.00 | 99 | 1009.9 |
| 20260509090531 | 48 | 178 | 5.0 | 6.0 | 0.00 | 0.00 | 0.00 | 99 | 1010.0 |
| 20260509090028 | 48 | 178 | 5.0 | 6.0 | 0.00 | 0.00 | 0.00 | 99 | 1010.2 |
| 20260509085525 | 48 | 188 | 4.0 | 5.0 | 0.00 | 0.00 | 0.00 | 99 | 1010.0 |
| 20260509085021 | 48 | 185 | 5.0 | 7.0 | 0.00 | 0.00 | 0.00 | 99 | 1009.9 |
| 20260509084518 | 48 | 191 | 7.0 | 8.0 | 0.00 | 0.00 | 0.00 | 99 | 1009.8 |
| 20260509084015 | 48 | 189 | 6.0 | 7.0 | 0.00 | 0.00 | 0.00 | 99 | 1009.6 |
| 20260509083513 | 48 | 178 | 6.0 | 7.0 | 0.00 | 0.00 | 0.00 | 99 | 1009.7 |
| 20260509083009 | 48 | 187 | 5.0 | 6.0 | 0.00 | 0.00 | 0.00 | 99 | 1009.9 |
| 20260509082507 | 48 | 181 | 5.0 | 6.0 | 0.00 | 0.00 | 0.00 | 99 | 1009.9 |
| 20260509082004 | 48 | 177 | 7.0 | 8.0 | 0.00 | 0.00 | 0.00 | 99 | 1009.9 |
| 20260509081501 | 48 | 205 | 6.0 | 7.0 | 0.00 | 0.00 | 0.00 | 99 | 1009.9 |
| 20260509080958 | 48 | 175 | 6.0 | 7.0 | 0.00 | 0.00 | 0.00 | 99 | 1010.0 |
| 20260509080456 | 48 | 176 | 5.0 | 6.0 | 0.00 | 0.00 | 0.00 | 99 | 1009.8 |
| 20260509075954 | 48 | 182 | 5.0 | 6.0 | 0.00 | 0.00 | 0.00 | 99 | 1010.2 |
| 20260509075451 | 48 | 190 | 4.0 | 5.0 | 0.00 | 0.00 | 0.00 | 99 | 1010.1 |
| 20260509074948 | 49 | 199 | 5.0 | 6.0 | 0.00 | 0.00 | 0.00 | 99 | 1010.3 |
| 20260509074446 | 48 | 207 | 4.0 | 5.0 | 0.00 | 0.00 | 0.00 | 99 | 1010.2 |
| 20260509073942 | 48 | 201 | 4.0 | 5.0 | 0.00 | 0.00 | 0.00 | 99 | 1010.1 |
| 20260509073438 | 48 | 207 | 3.0 | 3.0 | 0.00 | 0.00 | 0.00 | 99 | 1010.0 |
| 20260509072935 | 48 | 213 | 4.0 | 5.0 | 0.00 | 0.00 | 0.00 | 99 | 1010.0 |
| 20260509072432 | 48 | 205 | 3.0 | 3.0 | 0.00 | 0.00 | 0.00 | 99 | 1010.0 |
| 20260509071928 | 49 | 197 | 4.0 | 5.0 | 0.00 | 0.00 | 0.00 | 99 | 1010.0 |
| 20260509071425 | 49 | 188 | 5.0 | 6.0 | 0.00 | 0.00 | 0.00 | 99 | 1010.0 |
| 20260509070923 | 49 | 197 | 3.0 | 5.0 | 0.00 | 0.00 | 0.00 | 99 | 1010.2 |
| 20260509070420 | 49 | 187 | 4.0 | 5.0 | 0.00 | 0.00 | 0.00 | 99 | 1010.4 |
| 20260509065915 | 49 | 189 | 4.0 | 5.0 | 0.00 | 0.00 | 0.00 | 99 | 1010.2 |
| 20260509065411 | 50 | 181 | 3.0 | 5.0 | 0.00 | 0.00 | 0.00 | 99 | 1010.5 |
| 20260509064908 | 50 | 184 | 3.0 | 3.0 | 0.00 | 0.00 | 0.00 | 99 | 1010.5 |
| 20260509064405 | 50 | 179 | 4.0 | 5.0 | 0.00 | 0.00 | 0.00 | 99 | 1010.4 |
| 20260509063903 | 50 | 190 | 3.0 | 5.0 | 0.00 | 0.00 | 0.00 | 99 | 1010.6 |
| 20260509063358 | 50 | 187 | 4.0 | 5.0 | 0.00 | 0.00 | 0.00 | 99 | 1010.3 |
| 20260509062856 | 50 | 202 | 5.0 | 6.0 | 0.00 | 0.00 | 0.00 | 99 | 1010.8 |
| 20260509062353 | 50 | 210 | 5.0 | 5.0 | 0.00 | 0.00 | 0.00 | 99 | 1010.6 |
| 20260509061850 | 50 | 202 | 4.0 | 6.0 | 0.00 | 0.00 | 0.00 | 99 | 1010.6 |
| 20260509061348 | 50 | 213 | 5.0 | 6.0 | 0.00 | 0.00 | 0.00 | 99 | 1010.6 |
| 20260509060844 | 50 | 214 | 4.0 | 5.0 | 0.00 | 0.00 | 0.00 | 99 | 1010.8 |
| 20260509060342 | 50 | 204 | 6.0 | 7.0 | 0.00 | 0.00 | 0.00 | 99 | 1011.0 |
| 20260509055843 | 50 | 207 | 5.0 | 6.0 | 0.00 | 0.00 | 0.00 | 99 | 1011.0 |
| 20260509055338 | 50 | 206 | 5.0 | 5.0 | 0.00 | 0.00 | 0.00 | 99 | 1011.0 |
| 20260509054836 | 51 | 204 | 5.0 | 7.0 | 0.00 | 0.00 | 0.00 | 99 | 1010.9 |
| 20260509054332 | 51 | 189 | 5.0 | 6.0 | 0.00 | 0.00 | 0.00 | 99 | 1010.9 |
| 20260509053831 | 51 | 208 | 5.0 | 6.0 | 0.00 | 0.00 | 0.00 | 99 | 1010.9 |
| 20260509053328 | 51 | 207 | 5.0 | 6.0 | 0.00 | 0.00 | 0.00 | 99 | 1010.9 |
| 20260509052826 | 51 | 208 | 5.0 | 6.0 | 0.00 | 0.00 | 0.00 | 99 | 1010.8 |
| 20260509052323 | 51 | 201 | 6.0 | 7.0 | 0.00 | 0.00 | 0.00 | 99 | 1010.8 |
| 20260509051821 | 51 | 208 | 4.0 | 5.0 | 0.00 | 0.00 | 0.00 | 99 | 1010.8 |
| 20260509051319 | 52 | 208 | 6.0 | 7.0 | 0.00 | 0.00 | 0.00 | 99 | 1010.8 |
| 20260509050815 | 52 | 212 | 6.0 | 7.0 | 0.00 | 0.00 | 0.00 | 99 | 1010.8 |
| 20260509050311 | 52 | 173 | 4.0 | 5.0 | 0.00 | 0.00 | 0.00 | 99 | 1011.0 |
| 20260509045809 | 52 | 189 | 5.0 | 6.0 | 0.00 | 0.02 | 0.02 | 99 | 1011.3 |
| 20260509045306 | 52 | 207 | 7.0 | 7.0 | 0.00 | 0.02 | 0.02 | 99 | 1011.3 |
| 20260509044803 | 52 | 203 | 5.0 | 6.0 | 0.00 | 0.02 | 0.02 | 99 | 1011.3 |
| 20260509044300 | 52 | 196 | 5.0 | 7.0 | 0.00 | 0.02 | 0.02 | 99 | 1011.2 |
| 20260509043756 | 52 | 187 | 4.0 | 5.0 | 0.00 | 0.02 | 0.02 | 99 | 1010.9 |
| 20260509043253 | 53 | 203 | 5.0 | 6.0 | 0.00 | 0.02 | 0.02 | 99 | 1011.4 |
| 20260509042749 | 53 | 200 | 7.0 | 8.0 | 0.00 | 0.02 | 0.02 | 99 | 1011.3 |
| 20260509042245 | 53 | 204 | 5.0 | 6.0 | 0.00 | 0.02 | 0.02 | 99 | 1011.3 |
| 20260509041742 | 52 | 203 | 3.0 | 5.0 | 0.00 | 0.02 | 0.02 | 99 | 1011.8 |
| 20260509041239 | 53 | 202 | 4.0 | 5.0 | 0.00 | 0.02 | 0.02 | 99 | 1011.3 |
| 20260509040738 | 53 | 197 | 5.0 | 6.0 | 0.00 | 0.02 | 0.02 | 99 | 1011.6 |
| 20260509040234 | 53 | 199 | 5.0 | 6.0 | 0.00 | 0.02 | 0.02 | 99 | 1011.2 |
| 20260509035731 | 53 | 209 | 5.0 | 6.0 | 0.00 | 0.02 | 0.02 | 99 | 1011.5 |
| 20260509035228 | 54 | 211 | 6.0 | 8.0 | 0.00 | 0.02 | 0.02 | 98 | 1011.4 |
| 20260509034725 | 53 | 185 | 5.0 | 7.0 | 0.00 | 0.02 | 0.02 | 98 | 1011.4 |
| 20260509034223 | 53 | 197 | 5.0 | 6.0 | 0.00 | 0.02 | 0.02 | 98 | 1011.6 |
| 20260509033719 | 54 | 190 | 6.0 | 7.0 | 0.00 | 0.02 | 0.02 | 97 | 1011.8 |
| 20260509033216 | 54 | 190 | 6.0 | 7.0 | 0.00 | 0.02 | 0.02 | 97 | 1011.5 |
| 20260509032714 | 54 | 185 | 5.0 | 6.0 | 0.00 | 0.02 | 0.02 | 96 | 1011.5 |
| 20260509032210 | 54 | 185 | 5.0 | 6.0 | 0.00 | 0.02 | 0.02 | 95 | 1011.8 |
| 20260509031708 | 54 | 185 | 5.0 | 7.0 | 0.00 | 0.02 | 0.02 | 95 | 1011.6 |
| 20260509031205 | 54 | 184 | 5.0 | 6.0 | 0.00 | 0.02 | 0.02 | 95 | 1011.8 |
| 20260509030703 | 55 | 176 | 5.0 | 5.0 | 0.00 | 0.02 | 0.02 | 94 | 1012.1 |
| 20260509030200 | 55 | 191 | 5.0 | 6.0 | 0.00 | 0.02 | 0.02 | 93 | 1011.9 |
| 20260509025656 | 55 | 179 | 4.0 | 5.0 | 0.00 | 0.02 | 0.02 | 93 | 1011.9 |
| 20260509025152 | 55 | 169 | 4.0 | 5.0 | 0.00 | 0.02 | 0.02 | 93 | 1012.0 |
| 20260509024648 | 55 | 184 | 4.0 | 5.0 | 0.00 | 0.02 | 0.02 | 92 | 1012.0 |
| 20260509024144 | 55 | 202 | 4.0 | 5.0 | 0.00 | 0.02 | 0.02 | 91 | 1011.8 |
| 20260509023642 | 56 | 205 | 5.0 | 7.0 | 0.00 | 0.02 | 0.02 | 91 | 1011.9 |
| 20260509023139 | 56 | 188 | 5.0 | 6.0 | 0.00 | 0.02 | 0.02 | 90 | 1011.8 |
| 20260509022635 | 56 | 205 | 6.0 | 7.0 | 0.00 | 0.02 | 0.02 | 89 | 1011.8 |
| 20260509022133 | 56 | 194 | 4.0 | 5.0 | 0.00 | 0.02 | 0.02 | 89 | 1011.9 |
| 20260509021629 | 56 | 189 | 5.0 | 6.0 | 0.00 | 0.02 | 0.02 | 88 | 1011.9 |
| 20260509021126 | 56 | 189 | 5.0 | 6.0 | 0.00 | 0.02 | 0.02 | 88 | 1011.6 |
| 20260509020625 | 56 | 187 | 6.0 | 7.0 | 0.00 | 0.02 | 0.02 | 88 | 1011.5 |
| 20260509020121 | 56 | 207 | 8.0 | 9.0 | 0.00 | 0.02 | 0.02 | 88 | 1011.3 |
| 20260509015620 | 56 | 206 | 5.0 | 6.0 | 0.00 | 0.02 | 0.02 | 90 | 1011.6 |
| 20260509015117 | 57 | 202 | 5.0 | 6.0 | 0.00 | 0.02 | 0.02 | 89 | 1011.4 |
| 20260509014614 | 57 | 192 | 6.0 | 7.0 | 0.00 | 0.02 | 0.02 | 88 | 1011.4 |
| 20260509014110 | 57 | 199 | 5.0 | 6.0 | 0.00 | 0.02 | 0.02 | 88 | 1011.3 |
| 20260509013607 | 57 | 214 | 7.0 | 8.0 | 0.00 | 0.02 | 0.02 | 88 | 1011.6 |
| 20260509013103 | 57 | 207 | 6.0 | 7.0 | 0.00 | 0.02 | 0.02 | 88 | 1011.3 |
| 20260509012600 | 58 | 196 | 6.0 | 7.0 | 0.00 | 0.02 | 0.02 | 88 | 1011.5 |
| 20260509012056 | 58 | 197 | 7.0 | 8.0 | 0.00 | 0.02 | 0.02 | 88 | 1011.3 |
| 20260509011554 | 58 | 206 | 7.0 | 8.0 | 0.00 | 0.02 | 0.02 | 88 | 1011.4 |
| 20260509011051 | 58 | 200 | 6.0 | 7.0 | 0.00 | 0.02 | 0.02 | 89 | 1011.3 |
| 20260509010549 | 58 | 203 | 6.0 | 6.0 | 0.00 | 0.02 | 0.02 | 88 | 1011.5 |
| 20260509010046 | 59 | 201 | 9.0 | 10.0 | 0.00 | 0.02 | 0.02 | 86 | 1011.4 |
| 20260509005544 | 59 | 216 | 9.0 | 10.0 | 0.00 | 0.02 | 0.02 | 85 | 1011.2 |
| 20260509005044 | 59 | 217 | 9.0 | 10.0 | 0.00 | 0.02 | 0.02 | 83 | 1011.2 |
| 20260509004541 | 59 | 212 | 7.0 | 10.0 | 0.00 | 0.02 | 0.02 | 84 | 1011.1 |
| 20260509004037 | 60 | 214 | 11.0 | 13.0 | 0.00 | 0.02 | 0.02 | 82 | 1011.2 |
| 20260509003536 | 60 | 215 | 11.0 | 13.0 | 0.00 | 0.02 | 0.02 | 81 | 1011.3 |
| 20260509003033 | 61 | 212 | 11.0 | 13.0 | 0.00 | 0.02 | 0.02 | 78 | 1011.1 |
| 20260509002530 | 61 | 201 | 12.0 | 15.0 | 0.00 | 0.02 | 0.02 | 77 | 1011.0 |
| 20260509002028 | 62 | 224 | 6.0 | 7.0 | 0.00 | 0.02 | 0.02 | 74 | 1011.0 |
| 20260509001525 | 62 | 224 | 10.0 | 10.0 | 0.00 | 0.02 | 0.02 | 73 | 1011.1 |
| 20260509001021 | 62 | 225 | 8.0 | 8.0 | 0.00 | 0.02 | 0.02 | 73 | 1011.2 |
| 20260509000519 | 63 | 222 | 9.0 | 10.0 | 0.00 | 0.02 | 0.02 | 72 | 1011.2 |
| 20260509000015 | 63 | 227 | 10.0 | 11.0 | 0.00 | 0.02 | 0.02 | 70 | 1010.9 |
| 20260508235513 | 63 | 222 | 10.0 | 10.0 | 0.00 | 0.02 | 0.02 | 69 | 1011.1 |
| 20260508235009 | 64 | 218 | 9.0 | 10.0 | 0.00 | 0.02 | 0.02 | 69 | 1011.3 |
| 20260508234507 | 64 | 218 | 10.0 | 10.0 | 0.00 | 0.02 | 0.02 | 68 | 1011.0 |
| 20260508234003 | 63 | 234 | 9.0 | 11.0 | 0.00 | 0.02 | 0.02 | 70 | 1011.3 |
| 20260508233503 | 64 | 240 | 9.0 | 11.0 | 0.00 | 0.02 | 0.02 | 70 | 1011.1 |
| 20260508232959 | 64 | 220 | 12.0 | 14.0 | 0.00 | 0.02 | 0.02 | 69 | 1011.2 |
| 20260508232456 | 63 | 227 | 7.0 | 8.0 | 0.00 | 0.02 | 0.02 | 72 | 1010.9 |
| 20260508231953 | 64 | 233 | 11.0 | 11.0 | 0.00 | 0.02 | 0.02 | 70 | 1011.1 |
| 20260508231450 | 64 | 219 | 5.0 | 6.0 | 0.00 | 0.02 | 0.02 | 72 | 1011.1 |
| 20260508230947 | 64 | 241 | 7.0 | 8.0 | 0.00 | 0.02 | 0.02 | 72 | 1011.3 |
| 20260508230444 | 64 | 232 | 6.0 | 7.0 | 0.00 | 0.02 | 0.02 | 72 | 1011.4 |
| 20260508225941 | 63 | 239 | 8.0 | 9.0 | 0.00 | 0.02 | 0.02 | 71 | 1011.4 |
| 20260508225438 | 64 | 203 | 6.0 | 8.0 | 0.00 | 0.02 | 0.02 | 74 | 1011.4 |
| 20260508224935 | 64 | 220 | 11.0 | 11.0 | 0.00 | 0.02 | 0.02 | 71 | 1011.2 |
| 20260508224433 | 64 | 224 | 10.0 | 11.0 | 0.00 | 0.02 | 0.02 | 72 | 1011.3 |
| 20260508223930 | 64 | 223 | 11.0 | 13.0 | 0.00 | 0.02 | 0.02 | 71 | 1011.3 |
| 20260508223428 | 63 | 223 | 11.0 | 11.0 | 0.00 | 0.02 | 0.02 | 72 | 1011.3 |
| 20260508222925 | 64 | 227 | 12.0 | 13.0 | 0.00 | 0.02 | 0.02 | 71 | 1011.3 |
| 20260508222422 | 64 | 226 | 8.0 | 9.0 | 0.00 | 0.02 | 0.02 | 75 | 1011.2 |
| 20260508221918 | 64 | 217 | 14.0 | 16.0 | 0.00 | 0.02 | 0.02 | 72 | 1011.4 |
| 20260508221414 | 64 | 227 | 16.0 | 16.0 | 0.00 | 0.02 | 0.02 | 73 | 1011.3 |
| 20260508220911 | 64 | 239 | 12.0 | 14.0 | 0.00 | 0.02 | 0.02 | 73 | 1011.4 |
| 20260508220407 | 64 | 228 | 11.0 | 11.0 | 0.00 | 0.02 | 0.02 | 71 | 1011.3 |
| 20260508215903 | 65 | 226 | 9.0 | 10.0 | 0.00 | 0.02 | 0.02 | 74 | 1011.3 |
| 20260508215400 | 64 | 238 | 9.0 | 10.0 | 0.00 | 0.02 | 0.02 | 73 | 1011.2 |
| 20260508214857 | 63 | 222 | 7.0 | 8.0 | 0.00 | 0.02 | 0.02 | 75 | 1011.4 |
| 20260508214355 | 64 | 231 | 8.0 | 10.0 | 0.00 | 0.02 | 0.02 | 73 | 1011.3 |
| 20260508213851 | 64 | 227 | 9.0 | 9.0 | 0.00 | 0.02 | 0.02 | 72 | 1011.5 |
| 20260508213348 | 63 | 248 | 9.0 | 9.0 | 0.00 | 0.02 | 0.02 | 71 | 1011.6 |
| 20260508212844 | 64 | 234 | 8.0 | 10.0 | 0.00 | 0.02 | 0.02 | 73 | 1011.6 |
| 20260508212341 | 63 | 226 | 9.0 | 10.0 | 0.00 | 0.02 | 0.02 | 75 | 1011.4 |
| 20260508211836 | 63 | 219 | 9.0 | 10.0 | 0.00 | 0.02 | 0.02 | 73 | 1011.6 |
| 20260508211332 | 64 | 222 | 7.0 | 8.0 | 0.00 | 0.02 | 0.02 | 71 | 1011.6 |
| 20260508210830 | 63 | 238 | 11.0 | 13.0 | 0.00 | 0.02 | 0.02 | 70 | 1011.5 |
| 20260508210327 | 63 | 218 | 11.0 | 13.0 | 0.00 | 0.02 | 0.02 | 72 | 1011.6 |
| 20260508205824 | 63 | 216 | 5.0 | 6.0 | 0.00 | 0.02 | 0.02 | 72 | 1011.6 |
| 20260508205320 | 63 | 235 | 8.0 | 8.0 | 0.00 | 0.02 | 0.02 | 72 | 1011.8 |
| 20260508204816 | 63 | 228 | 9.0 | 9.0 | 0.00 | 0.02 | 0.02 | 72 | 1011.6 |
| 20260508204313 | 64 | 230 | 7.0 | 8.0 | 0.00 | 0.02 | 0.02 | 72 | 1011.8 |
| 20260508203809 | 63 | 229 | 9.0 | 10.0 | 0.00 | 0.02 | 0.02 | 71 | 1012.0 |
| 20260508203305 | 63 | 229 | 9.0 | 10.0 | 0.00 | 0.02 | 0.02 | 71 | 1012.0 |
| 20260508202801 | 63 | 226 | 6.0 | 8.0 | 0.00 | 0.02 | 0.02 | 73 | 1012.1 |
| 20260508202259 | 62 | 219 | 7.0 | 8.0 | 0.00 | 0.02 | 0.02 | 73 | 1012.0 |
| 20260508201756 | 63 | 230 | 7.0 | 7.0 | 0.00 | 0.02 | 0.02 | 70 | 1012.2 |
| 20260508201252 | 63 | 230 | 7.0 | 8.0 | 0.00 | 0.02 | 0.02 | 74 | 1012.4 |
| 20260508200749 | 63 | 193 | 7.0 | 7.0 | 0.00 | 0.02 | 0.02 | 71 | 1012.4 |
| 20260508200245 | 63 | 209 | 6.0 | 7.0 | 0.00 | 0.02 | 0.02 | 73 | 1012.6 |
| 20260508195741 | 63 | 211 | 7.0 | 9.0 | 0.00 | 0.02 | 0.02 | 72 | 1012.5 |
| 20260508195238 | 62 | 204 | 3.0 | 5.0 | 0.00 | 0.02 | 0.02 | 75 | 1012.7 |
| 20260508194735 | 62 | 168 | 5.0 | 7.0 | 0.00 | 0.02 | 0.02 | 72 | 1012.6 |
| 20260508194232 | 62 | 191 | 6.0 | 7.0 | 0.00 | 0.02 | 0.02 | 73 | 1012.6 |
| 20260508193729 | 62 | 183 | 7.0 | 9.0 | 0.00 | 0.02 | 0.02 | 73 | 1012.6 |
| 20260508193225 | 62 | 172 | 4.0 | 5.0 | 0.00 | 0.02 | 0.02 | 72 | 1012.5 |
| 20260508192722 | 62 | 142 | 2.0 | 2.0 | 0.00 | 0.02 | 0.02 | 71 | 1012.4 |
| 20260508192219 | 62 | 179 | 2.0 | 2.0 | 0.00 | 0.02 | 0.02 | 71 | 1012.9 |
| 20260508191716 | 62 | 155 | 4.0 | 5.0 | 0.00 | 0.02 | 0.02 | 71 | 1012.9 |
| 20260508191213 | 62 | 159 | 3.0 | 3.0 | 0.00 | 0.02 | 0.02 | 70 | 1013.1 |
| 20260508190710 | 63 | 144 | 1.0 | 1.0 | 0.00 | 0.02 | 0.02 | 69 | 1013.0 |
| 20260508190206 | 62 | 181 | 3.0 | 3.0 | 0.00 | 0.02 | 0.02 | 72 | 1013.2 |
| 20260508185703 | 63 | 167 | 4.0 | 5.0 | 0.00 | 0.02 | 0.02 | 70 | 1013.2 |
| 20260508185200 | 62 | 240 | 0.0 | 1.0 | 0.00 | 0.02 | 0.02 | 70 | 1013.1 |
| 20260508184658 | 61 | 240 | 0.0 | 1.0 | 0.00 | 0.02 | 0.02 | 70 | 1013.0 |
| 20260508184155 | 61 | 240 | 3.0 | 3.0 | 0.00 | 0.02 | 0.02 | 71 | 1013.3 |
| 20260508183652 | 61 | 205 | 3.0 | 3.0 | 0.00 | 0.02 | 0.02 | 71 | 1013.4 |
| 20260508183147 | 62 | 169 | 2.0 | 2.0 | 0.00 | 0.02 | 0.02 | 73 | 1013.5 |
| 20260508182644 | 61 | 102 | 0.0 | 0.0 | 0.00 | 0.02 | 0.02 | 75 | 1013.5 |
| 20260508182140 | 61 | 102 | 1.0 | 1.0 | 0.00 | 0.02 | 0.02 | 75 | 1013.6 |
| 20260508181636 | 61 | 117 | 0.0 | 2.0 | 0.00 | 0.02 | 0.02 | 75 | 1013.6 |
| 20260508181134 | 61 | 107 | 1.0 | 1.0 | 0.00 | 0.02 | 0.02 | 78 | 1013.5 |
| 20260508180630 | 61 | 110 | 2.0 | 2.0 | 0.00 | 0.02 | 0.02 | 76 | 1013.8 |
| 20260508180127 | 61 | 175 | 4.0 | 5.0 | 0.00 | 0.02 | 0.02 | 77 | 1013.9 |
| 20260508175624 | 60 | 175 | 2.0 | 2.0 | 0.00 | 0.02 | 0.02 | 77 | 1013.7 |
| 20260508175121 | 61 | 166 | 1.0 | 1.0 | 0.00 | 0.02 | 0.02 | 77 | 1013.8 |
| 20260508174618 | 61 | 185 | 5.0 | 7.0 | 0.00 | 0.02 | 0.02 | 76 | 1013.8 |
| 20260508174115 | 62 | 141 | 3.0 | 5.0 | 0.00 | 0.02 | 0.02 | 77 | 1013.9 |
| 20260508173612 | 61 | 189 | 3.0 | 3.0 | 0.00 | 0.02 | 0.02 | 76 | 1014.0 |
| 20260508173108 | 60 | 161 | 3.0 | 5.0 | 0.00 | 0.02 | 0.02 | 77 | 1014.4 |
| 20260508172605 | 61 | 180 | 7.0 | 7.0 | 0.00 | 0.02 | 0.02 | 77 | 1014.3 |
| 20260508172101 | 60 | 196 | 5.0 | 6.0 | 0.00 | 0.02 | 0.02 | 77 | 1014.5 |
| 20260508171558 | 60 | 208 | 7.0 | 8.0 | 0.00 | 0.02 | 0.02 | 78 | 1014.3 |
| 20260508171054 | 60 | 163 | 4.0 | 5.0 | 0.00 | 0.02 | 0.02 | 78 | 1014.5 |
| 20260508170552 | 60 | 215 | 6.0 | 6.0 | 0.00 | 0.02 | 0.02 | 79 | 1014.8 |
| 20260508170049 | 61 | 176 | 3.0 | 3.0 | 0.00 | 0.02 | 0.02 | 77 | 1014.9 |
| 20260508165546 | 60 | 207 | 3.0 | 5.0 | 0.00 | 0.02 | 0.02 | 78 | 1014.7 |
| 20260508165043 | 61 | 216 | 6.0 | 7.0 | 0.00 | 0.02 | 0.02 | 76 | 1014.8 |
| 20260508164540 | 61 | 188 | 4.0 | 6.0 | 0.00 | 0.02 | 0.02 | 76 | 1014.7 |
| 20260508164036 | 61 | 151 | 5.0 | 7.0 | 0.00 | 0.02 | 0.02 | 77 | 1014.9 |
| 20260508163534 | 60 | 187 | 7.0 | 9.0 | 0.00 | 0.02 | 0.02 | 78 | 1015.0 |
| 20260508163030 | 60 | 167 | 4.0 | 5.0 | 0.00 | 0.02 | 0.02 | 77 | 1015.2 |
| 20260508162527 | 60 | 193 | 7.0 | 9.0 | 0.00 | 0.02 | 0.02 | 78 | 1015.2 |
| 20260508162025 | 59 | 144 | 2.0 | 2.0 | 0.00 | 0.02 | 0.02 | 81 | 1015.0 |
| 20260508161521 | 60 | 177 | 3.0 | 3.0 | 0.00 | 0.02 | 0.02 | 79 | 1015.0 |
| 20260508161018 | 59 | 167 | 3.0 | 3.0 | 0.00 | 0.02 | 0.02 | 81 | 1015.1 |
| 20260508160517 | 59 | 143 | 4.0 | 5.0 | 0.00 | 0.02 | 0.02 | 82 | 1015.3 |
| 20260508160014 | 59 | 180 | 5.0 | 6.0 | 0.00 | 0.02 | 0.02 | 85 | 1015.3 |
| 20260508155510 | 58 | 167 | 5.0 | 6.0 | 0.00 | 0.02 | 0.02 | 84 | 1015.4 |
| 20260508155008 | 59 | 170 | 6.0 | 7.0 | 0.00 | 0.02 | 0.02 | 85 | 1015.7 |
| 20260508154505 | 58 | 176 | 7.0 | 8.0 | 0.00 | 0.02 | 0.02 | 84 | 1015.5 |
| 20260508154001 | 58 | 220 | 4.0 | 5.0 | 0.00 | 0.02 | 0.02 | 87 | 1015.4 |
| 20260508153458 | 58 | 187 | 7.0 | 8.0 | 0.00 | 0.02 | 0.02 | 85 | 1015.5 |
| 20260508152955 | 57 | 139 | 5.0 | 7.0 | 0.00 | 0.02 | 0.02 | 88 | 1015.5 |
| 20260508152451 | 57 | 205 | 5.0 | 6.0 | 0.00 | 0.02 | 0.02 | 86 | 1015.8 |
| 20260508151948 | 57 | 217 | 8.0 | 10.0 | 0.00 | 0.02 | 0.02 | 86 | 1015.5 |
| 20260508151444 | 57 | 173 | 8.0 | 9.0 | 0.00 | 0.02 | 0.02 | 87 | 1015.6 |
| 20260508150941 | 56 | 186 | 5.0 | 7.0 | 0.00 | 0.02 | 0.02 | 90 | 1015.5 |
| 20260508150438 | 56 | 184 | 8.0 | 9.0 | 0.00 | 0.02 | 0.02 | 88 | 1015.6 |
| 20260508145933 | 56 | 197 | 7.0 | 8.0 | 0.00 | 0.02 | 0.02 | 91 | 1015.7 |
| 20260508145430 | 56 | 198 | 6.0 | 7.0 | 0.00 | 0.02 | 0.02 | 91 | 1015.8 |
| 20260508144927 | 56 | 166 | 8.0 | 9.0 | 0.00 | 0.02 | 0.02 | 91 | 1015.9 |
| 20260508144425 | 56 | 194 | 7.0 | 8.0 | 0.00 | 0.02 | 0.02 | 92 | 1015.9 |
| 20260508143922 | 56 | 181 | 4.0 | 5.0 | 0.00 | 0.02 | 0.02 | 93 | 1015.7 |
| 20260508143419 | 56 | 200 | 6.0 | 7.0 | 0.00 | 0.02 | 0.02 | 92 | 1015.8 |
| 20260508142916 | 56 | 181 | 5.0 | 7.0 | 0.00 | 0.02 | 0.02 | 91 | 1015.7 |
| 20260508142413 | 56 | 211 | 5.0 | 6.0 | 0.00 | 0.02 | 0.02 | 91 | 1015.6 |
| 20260508141909 | 55 | 183 | 5.0 | 6.0 | 0.00 | 0.02 | 0.02 | 92 | 1015.8 |
| 20260508141406 | 55 | 204 | 7.0 | 8.0 | 0.00 | 0.02 | 0.02 | 92 | 1015.9 |
| 20260508140904 | 55 | 190 | 8.0 | 9.0 | 0.00 | 0.02 | 0.02 | 93 | 1015.8 |
| 20260508140401 | 55 | 191 | 7.0 | 7.0 | 0.00 | 0.02 | 0.02 | 91 | 1015.7 |
| 20260508135856 | 55 | 198 | 7.0 | 7.0 | 0.00 | 0.02 | 0.02 | 94 | 1015.8 |
| 20260508135352 | 54 | 213 | 5.0 | 6.0 | 0.00 | 0.02 | 0.02 | 94 | 1015.8 |
| 20260508134849 | 53 | 210 | 7.0 | 8.0 | 0.00 | 0.02 | 0.02 | 96 | 1015.8 |
| 20260508134346 | 54 | 193 | 7.0 | 8.0 | 0.00 | 0.02 | 0.02 | 97 | 1015.9 |
| 20260508133842 | 53 | 187 | 7.0 | 8.0 | 0.07 | 0.02 | 0.02 | 98 | 1015.8 |
| 20260508133341 | 53 | 192 | 9.0 | 10.0 | 0.07 | 0.02 | 0.02 | 97 | 1015.8 |
| 20260508132837 | 53 | 176 | 8.0 | 9.0 | 0.07 | 0.02 | 0.02 | 99 | 1015.7 |
| 20260508132335 | 53 | 193 | 6.0 | 7.0 | 0.00 | 0.01 | 0.01 | 99 | 1015.9 |
| 20260508131831 | 52 | 207 | 5.0 | 7.0 | 0.00 | 0.01 | 0.01 | 99 | 1015.9 |
| 20260508131327 | 52 | 179 | 4.0 | 5.0 | 0.00 | 0.01 | 0.01 | 99 | 1016.0 |
| 20260508130824 | 51 | 173 | 6.0 | 7.0 | 0.00 | 0.01 | 0.01 | 99 | 1015.9 |
| 20260508130321 | 51 | 186 | 6.0 | 7.0 | 0.00 | 0.01 | 0.01 | 99 | 1015.9 |
| 20260508125817 | 50 | 184 | 4.0 | 5.0 | 0.00 | 0.01 | 0.01 | 99 | 1016.2 |
| 20260508125313 | 50 | 177 | 6.0 | 6.0 | 0.00 | 0.01 | 0.01 | 99 | 1016.0 |
| 20260508124811 | 50 | 175 | 5.0 | 6.0 | 0.00 | 0.01 | 0.01 | 99 | 1015.9 |
| 20260508124308 | 49 | 175 | 4.0 | 6.0 | 0.00 | 0.01 | 0.01 | 99 | 1015.8 |
| 20260508123806 | 49 | 184 | 6.0 | 7.0 | 0.00 | 0.01 | 0.01 | 99 | 1016.1 |
| 20260508123304 | 49 | 189 | 7.0 | 7.0 | 0.00 | 0.01 | 0.01 | 99 | 1015.9 |
| 20260508122800 | 48 | 178 | 1.0 | 1.0 | 0.00 | 0.01 | 0.01 | 99 | 1015.7 |
| 20260508122257 | 48 | 178 | 1.0 | 1.0 | 0.00 | 0.01 | 0.01 | 99 | 1015.9 |
| 20260508121755 | 48 | 185 | 3.0 | 3.0 | 0.00 | 0.01 | 0.01 | 99 | 1016.0 |
| 20260508121253 | 48 | 168 | 3.0 | 3.0 | 0.00 | 0.01 | 0.01 | 99 | 1016.1 |
| 20260508120750 | 48 | 173 | 3.0 | 3.0 | 0.05 | 0.01 | 0.01 | 99 | 1016.1 |
| 20260508120248 | 48 | 200 | 4.0 | 5.0 | 0.05 | 0.01 | 0.01 | 99 | 1016.2 |
| 20260508115745 | 48 | 190 | 3.0 | 3.0 | 0.00 | 0.00 | 0.00 | 99 | 1016.2 |
| 20260508115243 | 48 | 165 | 1.0 | 1.0 | 0.00 | 0.00 | 0.00 | 99 | 1016.0 |
| 20260508114739 | 47 | 164 | 0.0 | 0.0 | 0.00 | 0.00 | 0.00 | 99 | 1015.7 |
| 20260508114236 | 47 | 164 | 1.0 | 2.0 | 0.00 | 0.00 | 0.00 | 99 | 1015.8 |
| 20260508113732 | 47 | 177 | 2.0 | 2.0 | 0.00 | 0.00 | 0.00 | 99 | 1015.8 |
| 20260508113231 | 47 | 193 | 3.0 | 5.0 | 0.00 | 0.00 | 0.00 | 99 | 1015.8 |
| 20260508112726 | 47 | 193 | 3.0 | 5.0 | 0.00 | 0.00 | 0.00 | 99 | 1015.9 |
| 20260508112223 | 47 | 165 | 2.0 | 2.0 | 0.00 | 0.00 | 0.00 | 99 | 1015.9 |
| 20260508111720 | 47 | 156 | 2.0 | 2.0 | 0.00 | 0.00 | 0.00 | 99 | 1015.7 |
| 20260508111218 | 47 | 164 | 0.0 | 0.0 | 0.00 | 0.00 | 0.00 | 99 | 1015.5 |
| 20260508110715 | 47 | 164 | 0.0 | 0.0 | 0.00 | 0.00 | 0.00 | 99 | 1015.8 |
| 20260508110212 | 47 | 164 | 2.0 | 2.0 | 0.00 | 0.00 | 0.00 | 99 | 1015.5 |
| 20260508105711 | 47 | 158 | 2.0 | 2.0 | 0.00 | 0.00 | 0.00 | 98 | 1015.4 |
| 20260508105209 | 47 | 174 | 2.0 | 2.0 | 0.00 | 0.00 | 0.00 | 98 | 1015.3 |
| 20260508104706 | 47 | 180 | 4.0 | 5.0 | 0.00 | 0.00 | 0.00 | 98 | 1015.5 |
| 20260508104203 | 47 | 171 | 1.0 | 2.0 | 0.00 | 0.00 | 0.00 | 99 | 1015.5 |
| 20260508103700 | 47 | 184 | 3.0 | 3.0 | 0.00 | 0.00 | 0.00 | 99 | 1016.0 |
| 20260508103157 | 47 | 185 | 2.0 | 2.0 | 0.00 | 0.00 | 0.00 | 99 | 1015.7 |
| 20260508102654 | 47 | 179 | 3.0 | 3.0 | 0.00 | 0.00 | 0.00 | 99 | 1015.8 |
| 20260508102152 | 46 | 184 | 3.0 | 3.0 | 0.00 | 0.00 | 0.00 | 99 | 1015.5 |
| 20260508101649 | 47 | 189 | 2.0 | 2.0 | 0.00 | 0.00 | 0.00 | 98 | 1015.8 |